Regional Weather Roundup
Issued by NWS

Home | Current Version | Previous Version | Text Only | Print | Product List | Glossary Off
Versions: 1 2 3 4 5 6 7 8 9 10 11 12 13 14 15 16 17 18 19 20 21 22 23 24 25 26 27

000
ASUS45 KTFX 181610
RWRMT
MONTANA REGIONAL WEATHER ROUNDUP
NATIONAL WEATHER SERVICE GREAT FALLS MT
900 AM MST SAT NOV 18 2017

NOTE: "FAIR" INDICATES FEW OR NO CLOUDS BELOW 12000 FEET WITH NO
SIGNIFICANT WEATHER AND/OR OBSTRUCTIONS TO VISIBILITY.

MTZ001>007-043-181700-
WEST OF THE DIVIDE

CITY           SKY/WX    TMP DP  RH WIND       PRES   REMARKS
KALISPELL      CLOUDY    35  26  69 S6        30.25R WCI  30
MISSOULA       CLOUDY    37  24  59 CALM      30.30R
BUTTE          CLOUDY    23  12  62 CALM      30.28R
MULLAN PASS    CLOUDY    22  20  92 VRB5      30.20R
ANACONDA         N/A     30  12  47 S15       30.28R WCI  19
DEER LODGE       N/A     28  18  64 S6        30.28R WCI  22
EUREKA           N/A     37  21  52 MISG      30.25R
HAMILTON         N/A     37  18  44 S9        30.31S WCI  31
LIBBY            N/A     32  28  86 CALM      30.26R
PLAINS           N/A     40  24  53 SW3       30.28R
RONAN            N/A     35  25  67 E1        30.30R
$$

MTZ008-052>055-181700-
SOUTHWEST MONTANA

CITY           SKY/WX    TMP DP  RH WIND       PRES   REMARKS
BOZEMAN        FAIR      29  15  56 N9        30.27S WCI  20
DILLON         FAIR      24  11  57 S9        30.31R WCI  14
W YELLOWSTONE  CLOUDY    19  16  86 SW14G23   30.32R WCI   6
ENNIS          CLOUDY    27  12  54 S12       30.35R WCI  16
TWIN BRIDGES     N/A     29  10  44 CALM      30.26R
$$

MTZ009-010-012-014-046-048-049-054-181700-
EAST SLOPES AND CENTRAL MONTANA

CITY           SKY/WX    TMP DP  RH WIND       PRES   REMARKS
CUT BANK       FAIR      33  21  61 W14       30.07R WCI  23
GREAT FALLS    FAIR      36  19  50 SW24G35   30.11S WCI  24
MALMSTROM AFB  FAIR      37  20  51 SW31G38   30.11F WCI  23
HELENA         CLOUDY    36  18  48 S7        30.24R WCI  30
CHOTEAU          N/A     37  18  44 SW13      30.11S WCI  29
POWER          FAIR      33  21  61 SW17G23   30.10R WCI  22
RAYNESFORD     FAIR      36  17  47 SW36G43   30.09F WCI  21
ULM            FAIR      37  20  49 SW24G33   30.14F WCI  25
$$

MTZ011-013-016-021-045-047-050-051-181700-
NORTH CENTRAL MONTANA

CITY           SKY/WX    TMP DP  RH WIND       PRES   REMARKS
HAVRE          FAIR      26  21  81 SW8       30.09S WCI  18
LEWISTOWN      CLOUDY    34  19  54 W15       30.10F WCI  24
N BAR RANCH    CLOUDY    34  16  47 W13G20    30.11F WCI  25
CHINOOK          N/A     16   7  67 CALM      30.11S
DENTON         FAIR      35  20  53 W15       30.07F WCI  26
GEYSER         FAIR      35  18  51 W26G37    30.07S WCI  22
GRASS RANGE    PTSUNNY   35  19  52 W14       30.08R WCI  25
WINIFRED       FAIR      35  20  55 W17       30.09S WCI  25
$$

MTZ017>020-022>027-061-062-181700-
NORTHEAST MONTANA

CITY           SKY/WX    TMP DP  RH WIND       PRES   REMARKS
GLASGOW        CLOUDY    17  13  84 CALM      30.11F
GLENDIVE       CLOUDY    20  14  77 SW8       30.13S WCI  10
JORDAN           N/A     23  19  85 E5        30.11R
SIDNEY         PTSUNNY   17  11  77 SW7       30.16R WCI   8
WOLF POINT     CLOUDY    16  11  80 SW8       30.14F WCI   5
MALTA          MOSUNNY   18  14  86 W5        30.12S
PLENTYWOOD       N/A     12   7  79 CALM      30.10F
POPLAR           N/A     14   9  79 W3        30.15S
SCOBEY           N/A     11   0  61 CALM      30.06R
$$

MTZ028>42-056>058-181700-
SOUTHCENTRAL AND SOUTHEAST MONTANA

CITY           SKY/WX    TMP DP  RH WIND       PRES   REMARKS
BAKER          CLOUDY    20  18  92 W7        30.13R WCI  11
BILLINGS       PTSUNNY   31  17  56 SW9       30.17R WCI  23
LIVINGSTON     FAIR      33  13  43 W31G47    30.17R WCI  19
MILES CITY     CLOUDY    26  23  88 W3        30.13S
BIG TIMBER     SUNNY     32  12  43 W30G37    30.18R WCI  18
EKALAKA          N/A     28  20  72 W7        30.07R WCI  21
FORSYTH          N/A     36  19  51 W10       30.14R WCI  28
HARLOWTON      FAIR      32  17  55 W30G41    30.12R WCI  17
LAUREL           N/A     32  18  55 SW9       30.19R WCI  24
ROUNDUP          N/A     36  15  42 SW18      30.05R WCI  26
$$

REGIONAL REPORTS...DAKOTAS

CITY           SKY/WX    TMP DP  RH WIND       PRES   REMARKS
WILLISTON      FAIR      18  10  71 W10       30.14R WCI   6
MINOT          FAIR      16   7  67 W16       30.08R WCI   1
DICKINSON      FAIR      17  12  80 NW12      30.09R WCI   4
BEACH          FAIR      18  12  79 W9        30.14R WCI   6
CROSBY         FAIR      12   7  79 W16G22    30.11R WCI  -4
TIOGA          FAIR      14  10  85 W18       30.09F WCI  -3
WATFORD CITY   FAIR      18  10  73 W16       30.12R WCI   3
BISMARCK       CLOUDY    24  18  77 NW16G24   30.12R WCI  11
GRAND FORKS    PTSUNNY   17  11  77 NW13      30.02R WCI   4
FARGO          FAIR      22  13  68 NW15G25   30.01R WCI   9
BUFFALO SD       N/A     28  22  78 NW16      30.05R WCI  16
RAPID CITY     FAIR      39  18  42 NW12G17   30.13R WCI  32
$$

REGIONAL REPORTS...WYOMING/IDAHO/WASHINGTON

CITY           SKY/WX    TMP DP  RH WIND       PRES   REMARKS
GILLETTE       FAIR      33  15  47 W14       30.17R WCI  23
SHERIDAN       FAIR      33  17  51 CALM      30.17R
BUFFALO WY     FAIR      29   7  39 W8        30.17R WCI  21
CODY           FAIR      33   8  35 W14G28    30.20R WCI  23
IDAHO FALLS    FAIR      27  22  81 SW12      30.43R WCI  17
SALMON         FAIR      25  18  74 N7        30.39R WCI  17
BOISE          FAIR      33  23  66 SE10      30.41R WCI  25
SPOKANE        CLOUDY    34  33  96 S5        30.31R
$$

REGIONAL REPORTS...ALBERTA

CITY           SKY/WX    TMP DP  RH WIND       PRES   REMARKS
EDMONTON       MOCLDY    14   9  79 SW9       29.87F WCI   2
CALGARY        MOCLDY    28  12  50 SW7G17    29.92F WCI  21
LETHBRIDGE     MOCLDY    34  21  60 W26G36    30.01R WCI  21
MEDICINE HAT   MOCLDY    19  14  79 SW14      30.03S WCI   6
$$

REGIONAL REPORTS...SASKATCHEWAN

CITY           SKY/WX    TMP DP  RH WIND       PRES   REMARKS
SWIFT CURRENT  SUNNY      9   3  78 SW14      29.97F WCI  -8
REGINA         FLURRIES   5   1  85 S6        30.05S WCI  -6
SASKATOON      FLURRIES   3  -2  78 SW9       30.02F WCI -11
$$




USA.gov is the U.S. government's official web portal to all federal, state and local government web resources and services.